Погода Баево

Погода Баево : погода сейчас, прогноз погоды и архив. Всё, что Вы хотите узнать о погоде Баево!

Поиск расширенной информации на нашем сайте:

Полезная информация: Купить серебряные украшения в 1030 тут

Другие новости

Новости СМИ2

Главная страница сайта

Новости сайта

02.10.2013

Напоминаем, что на нашем новом сайте вы можете получить высокодетализированные прогнозы погоды по пунктам России, СНГ и мира (включающие важные для авиации метеовеличины, такие как направление и скорость ветра, видимость, явления погоды, количество и форма облачности, нижняя и верхняя граница облачности), а также ознакомиться с разнообразными материалами по авиационной метеорологии и подборкой полезных ссылок на эту тему.

Сайт Метеоцентр.Азия посвящён разработке технологий оптимизации авиаметеорологического обслуживания, включая проектирование и перспективное создание нескольких автоматизированных авиаметеорологических систем:
- система выпуска высокодетальных прогностических карт явлений погоды для нижнего воздушного пространства по России и ближнему зарубежью;
- система верификации прогнозов TAF (выпускаемых синоптиками официальных АМСГ РФ и ближнего зарубежья) и AUTOTAF (выпускаемых сайтом Метеоцентр.Азия) - выявление ошибок, онлайн-сопоставление с фактической погодой METAR, автоматическое внесение коррективов в прогнозы при резком отклонении фактической погоды от прогноза, подсчёт оправдываемости прогнозов по элементам и в целом;
- система обработки, анализа и отображения авиаметеорологической информации для применения провайдерами метеорологической информации.

Рекомендуем: Расшифровка маркировки сварочных электродов arkgou.ru.

Погода Баево - сегодня

Время (UTC), дата Ветер
(°,м/с) 
Видим.   Явления Облачность Т
(°С)
Тd
(°С)
f(%) Тe
(°С)
Pmin
(гПа)
dP
(гПа)
Po
(мм)
O2
(г/м3)
Тmin Tmax R s Состояние
почвы
15 24.04.17 250 (З) 10 км    4/4 1000 м 
[Sc]
+7.5 +2.9 73 +7  1023  2.2  756  296           
18 24.04.17 250 (З) 10 км    8/8 600 м кучево-дожд. 
[Cb cap]
+7.2 +3.4 77 +8  1024.4  1.4  757  297           
21 24.04.17 тихо ()   10 км    8/8 600 м кучево-дожд. 
[Cb cap]
+6.5 +3.3 80 +7  1025.7  1.2  758  298           
00 25.04.17 тихо ()   10 км    6/0 средняя, верхняя 
[Ac lent|Ci fib]
+4.9 +3.1 88 +5  1027.9  759  300  +4.8         
03 25.04.17 120 (ЮВ) 20000 м    3/0 верхняя 
[Cs]
+10.3 +3 60 +11  1029.1  1.6  761  295           
06 25.04.17 120 (ЮВ) 20000 м    8/4 1000 м верхняя 
[Cu hum|Cs]
+13.6 +1.1 42 +14  1028.7  -0.3  760  292           
09 25.04.17 130 (ЮВ) 20000 м    3/0 верхняя 
[Cs]
+15.8 +0.6 36 +16  1027.9  -0.7  760  289           
12 25.04.17 110 (В) 20000 м    3/0 верхняя 
[Cs]
+16.7 +0.1 32 +18  1026.7  -1.1  759  288    +16.9       
15 25.04.17 120 (ЮВ) 20000 м    3/3 1000 м 
[Sc diur, vesp]
+12.4 +2.3 50 +13  1027  0.1  759  292           
18 25.04.17 030 (СВ) 20000 м    ясно 
+7.9 +4.7 80 +9  1026.4  -0.8  759  296           
21 25.04.17 030 (СВ) 20000 м    ясно 
+5.3 +2.3 81 +5  1025.3  -1.3  758  299           
00 26.04.17 040 (СВ) 20000 м    5/0 средняя, верхняя 
[Ac As|Ci fib]
+5.7 +2.3 79 +5  1024.4  -0.8  757  298  +4.8         
03 26.04.17 080 (В) 20000 м    1/0 верхняя 
[Ci fib]
+12.3 +2.4 51 +12  1023.4  -0.7  756  291           
06 26.04.17 090 (В) 20000 м    5/0 верхняя 
[Ci fib]
+19 +2.2 33 +20  1021.2  -1.8  755  284           
09 26.04.17 150 (ЮВ) 20000 м    5/0 верхняя 
[Ci fib]
+23.1 +2 25 +23  1018.6  -2.3  753  280           
12 26.04.17 170 (Ю) 20000 м    6/0 верхняя 
[Ci]
+23.4 +2.4 25 +23  1017.4  -1.2  752  279    +24.4       
15 26.04.17 150 (ЮВ) 20000 м    3/3 1000 м 
[Sc diur, vesp]
+16.9 +6.3 50 +18  1017.1  -0.6  752  284           
18 26.04.17 140 (ЮВ) 20000 м    ясно 
+13.6 +4.8 55 +15  1016  -1.3  751  288           
21 26.04.17 тихо ()   20000 м    ясно 
+9.2 +6.2 81 +9  1015.5  -0.7  751  292           
00 27.04.17 080 (В) 20000 м    ясно 
+8.2 +6.2 87 +9  1014.5  -1  750  292  +7.8         
03 27.04.17 180 (Ю) 20000 м    3/0 верхняя 
[Ci fib]
+19 +3.5 36 +19  1013.1  -0.8  749  282           
06 27.04.17 210 (ЮЗ) 6{10}  20000 м    ясно 
+25.2 +1.6 21 +25  1012.4  -0.5  749  276           
09 27.04.17 240 (ЮЗ) 5{10}  20000 м    ясно 
+28 +3.1 20 +28  1011.3  -0.9  748  273           
12 27.04.17 270 (З) 20000 м    8/3 1000 м верхняя 
[Cu hum|Ci fib]
+26.5 +7.2 29 +27  1011.7  0.3  748  274    +28.1       
15 27.04.17 300 (СЗ) 20000 м    3/0 средняя, верхняя 
[Ac As|Ci fib]
+20.8 +8.8 46 +21  1014.2  2.2  750  279           
Время (UTC), дата Ветер
(°,м/с) 
Видим.   Явления Облачность Т
(°С)
Тd
(°С)
f(%) Тe
(°С)
Pmin
(гПа)
dP
(гПа)
Po
(мм)
O2
(г/м3)
Тmin Tmax R s Состояние
почвы

Для получения пояснительной информации подведите курсор к названию столбца.

ПОГОДА Баево - архив

Всё, что Вы хотите узнать о погоде Баево - удобно и подробно!

Выберите нужную дату (начиная с 1 января 2015* года) и нажмите кнопку "Найти".
Будут отображены архивные сводки погоды по пункту Баево, начиная с указанной даты.


Отображать данные в формате CSV (для использования в таблицах Excel)


Внимание! Наш архив погоды предназначен исключительно для личного некоммерческого использования в познавательных целях. Если Вам необходимы официальные справки о состоянии погоды (для производственных, юридических, коммерческих и т.п. целей), обращайтесь в органы Росгидромета.

*Примечание: данная дата относится к архиву по метеостанциям СССР (Россия, СНГ, Балтия).
Архив по метеостанциям Зарубежной Европы и Азии (кроме Китая) хранится 10 дней, по другим регионам земного шара (Китай, Африка, Америка, Австралия, Океания) - 1 день.

Баево - район местоположения метеостанции


Название, широта, долгота, высота метеостанции:
Баево 53.3°ш. 80.8°д. 122 м над ур. моря [Российская Федерация]

Дополнительная информация

В oтличие oт бoльшинства пoгoдных сайтoв мы публикуем пoдрoбную метеoинфoрмацию в детальнoм прoфессиoнальнoм фoрмате.

Характеристики температуры и влажнoсти вoздуха измеряются на высoте 2 м в тени вдали oт зданий и деревьев.
Скoрoсть ветра измеряется на высoте 10 м (на урoвне рoста челoвека скoрoсть ветра ниже в 1.5-2 раза). Если метеoстанция нахoдится в гoрoде или в лесу, тo скoрoсть ветра занижена на 2-4 м/с пo сравнению с oткрытым местoм. Скoрoсть ветра над акватoриями крупных рек и oзёр, а также на вершинах хoлмoв на 2-5 м/с выше, чем в oбычных услoвиях.
Атмoсфернoе давление в разных тoчках местнoсти мoжет значительнo oтличаться oт давления на метеoстанции, в зависимoсти oт услoвий рельефа (при пoдъёме на 10 м давление пoнижается примернo на 1 мм рт.ст.).